Location: Aalen
(48.8330°N, 10.1000°E)
Time: 03:55:39
(UTC+01:00)

BlueWalker 3 - Pass Details

Date: 10 December 2022
Orbit: 499 x 517 km, 53.2° (Epoch: 26 January)

Event Time Altitude Azimuth Distance (km) Brightness Sun altitude
Rises 19:22:04 0° 287° (WNW) 2,625 6.6 -28.3°
Reaches altitude 10° 19:25:05 10° 263° (W) 1,729 5.6 -28.8°
Maximum altitude 19:27:14 14° 229° (SW) 1,463 4.8 -29.2°
Enters shadow 19:28:16 13° 211° (SSW) 1,523 4.7 -29.4°
